IZ3LSV-13 Weather Reports


time (UTC)temp
C
wind
direction
speed
KPH
gust
KPH
rain 1hr
cm
rain 24hr
cm
rain mn
cm
humidity
%
barometer
mb
20260503022019 16 311 0.0 0.0 0.00 0.00 0.00 1115.4
20260503021514 16 132 0.0 0.0 0.00 0.00 0.00 1115.4
20260503021008 16 0 0.0 0.0 0.00 0.00 0.00 1115.3
20260503020503 16 0 0.0 0.0 0.00 0.00 0.00 1115.4
20260503015958 16 0 0.0 0.0 0.00 0.00 0.00 1115.3
20260503015452 16 0 0.0 0.0 0.00 0.00 0.00 1115.3
20260503014947 16 0 0.0 0.0 0.00 0.00 0.00 1115.4
20260503014441 16 0 0.0 0.0 0.00 0.00 0.00 1115.5
20260503013936 17 327 0.0 0.0 0.00 0.00 0.00 1115.4
20260503013431 17 0 0.0 0.0 0.00 0.00 0.00 1115.4
20260503012925 17 2 0.0 0.0 0.00 0.00 0.00 1115.5
20260503012420 17 337 0.0 0.0 0.00 0.00 0.00 1115.5
20260503011914 17 337 0.0 3.2 0.00 0.00 0.00 1115.5
20260503011409 17 0 0.0 3.2 0.00 0.00 0.00 1115.4
20260503010903 17 0 0.0 0.0 0.00 0.00 0.00 1115.5
20260503010357 17 0 0.0 0.0 0.00 0.00 0.00 1115.5
20260503005852 17 0 0.0 0.0 0.00 0.00 0.00 1115.5
20260503005346 17 67 0.0 0.0 0.00 0.00 0.00 1115.6
20260503004841 17 0 0.0 0.0 0.00 0.00 0.00 1115.6
20260503004335 18 0 0.0 0.0 0.00 0.00 0.00 1115.6
20260503003830 18 0 0.0 0.0 0.00 0.00 0.00 1115.6
20260503003325 18 0 0.0 0.0 0.00 0.00 0.00 1115.7
20260503002819 18 0 0.0 0.0 0.00 0.00 0.00 1115.7
20260503002314 18 0 0.0 0.0 0.00 0.00 0.00 1115.7
20260503001808 18 0 0.0 0.0 0.00 0.00 0.00 1115.7
20260503001303 18 0 0.0 0.0 0.00 0.00 0.00 1115.7
20260503000758 18 0 0.0 0.0 0.00 0.00 0.00 1115.8
20260503000252 18 0 0.0 0.0 0.00 0.00 0.00 1115.8
20260502235747 18 0 0.0 0.0 0.00 0.00 0.00 1116.0
20260502235241 18 0 0.0 0.0 0.00 0.00 0.00 1116.0
20260502234736 18 0 0.0 0.0 0.00 0.00 0.00 1116.1
20260502234230 18 0 0.0 0.0 0.00 0.00 0.00 1116.1
20260502233725 18 0 0.0 0.0 0.00 0.00 0.00 1116.1
20260502233220 18 0 0.0 0.0 0.00 0.00 0.00 1116.2
20260502232714 18 0 0.0 0.0 0.00 0.00 0.00 1116.3
20260502232209 18 0 0.0 0.0 0.00 0.00 0.00 1116.3
20260502231703 18 0 0.0 0.0 0.00 0.00 0.00 1116.3
20260502231158 19 0 0.0 0.0 0.00 0.00 0.00 1116.4
20260502230652 19 0 0.0 0.0 0.00 0.00 0.00 1116.4
20260502230147 19 0 0.0 0.0 0.00 0.00 0.00 1116.4
20260502225642 19 0 0.0 0.0 0.00 0.00 0.00 1116.5
20260502225136 19 33 0.0 0.0 0.00 0.00 0.00 1116.5
20260502224631 19 0 0.0 0.0 0.00 0.00 0.00 1116.5
20260502224126 19 0 0.0 4.8 0.00 0.00 0.00 1116.5
20260502223620 20 35 0.0 4.8 0.00 0.00 0.00 1116.5
20260502223115 20 46 0.0 4.8 0.00 0.00 0.00 1116.6
20260502222609 20 16 0.0 4.8 0.00 0.00 0.00 1116.6
20260502222104 20 353 0.0 0.0 0.00 0.00 0.00 1116.5
20260502221558 20 45 0.0 0.0 0.00 0.00 0.00 1116.4
20260502221053 20 45 0.0 0.0 0.00 0.00 0.00 1116.4
20260502220548 20 45 0.0 0.0 0.00 0.00 0.00 1116.4
20260502220042 20 45 0.0 0.0 0.00 0.00 0.00 1116.4
20260502215537 20 45 0.0 0.0 0.00 0.00 0.00 1116.4
20260502215031 20 45 0.0 0.0 0.00 0.00 0.00 1116.4
20260502214526 20 45 0.0 0.0 0.00 0.00 0.00 1116.3
20260502214020 20 45 0.0 0.0 0.00 0.00 0.00 1116.4
20260502213515 20 45 0.0 0.0 0.00 0.00 0.00 1116.3
20260502213009 20 45 0.0 0.0 0.00 0.00 0.00 1116.2
20260502212504 20 45 0.0 0.0 0.00 0.00 0.00 1116.3
20260502211959 20 45 0.0 0.0 0.00 0.00 0.00 1116.2
20260502211453 20 45 0.0 0.0 0.00 0.00 0.00 1116.3
20260502210948 20 45 0.0 0.0 0.00 0.00 0.00 1116.3
20260502210442 20 45 0.0 0.0 0.00 0.00 0.00 1116.4
20260502205937 20 45 0.0 0.0 0.00 0.00 0.00 1116.4
20260502205431 20 45 0.0 0.0 0.00 0.00 0.00 1116.3
20260502204926 21 45 0.0 0.0 0.00 0.00 0.00 1116.4
20260502204421 21 45 0.0 0.0 0.00 0.00 0.00 1116.3
20260502203915 21 45 0.0 0.0 0.00 0.00 0.00 1116.3
20260502203410 21 45 0.0 0.0 0.00 0.00 0.00 1116.4
20260502202904 21 45 0.0 0.0 0.00 0.00 0.00 1116.3
20260502202359 21 45 0.0 0.0 0.00 0.00 0.00 1116.4
20260502201853 21 45 0.0 0.0 0.00 0.00 0.00 1116.3
20260502201348 21 45 0.0 0.0 0.00 0.00 0.00 1116.4
20260502200843 21 45 0.0 0.0 0.00 0.00 0.00 1116.4
20260502200337 21 45 0.0 0.0 0.00 0.00 0.00 1116.5
20260502195832 21 45 0.0 0.0 0.00 0.00 0.00 1116.5
20260502195326 21 45 0.0 0.0 0.00 0.00 0.00 1116.5
20260502194821 21 45 0.0 0.0 0.00 0.00 0.00 1116.4
20260502194316 21 45 0.0 0.0 0.00 0.00 0.00 1116.4
20260502193809 21 45 0.0 0.0 0.00 0.00 0.00 1116.3
20260502193310 21 45 0.0 0.0 0.00 0.00 0.00 1116.3
20260502193304 21 45 0.0 0.0 0.00 0.00 0.00 1116.3
20260502192758 22 45 0.0 0.0 0.00 0.00 0.00 1116.4
20260502192253 22 45 0.0 0.0 0.00 0.00 0.00 1116.3
20260502191747 22 45 0.0 0.0 0.00 0.00 0.00 1116.4
20260502191242 22 45 0.0 0.0 0.00 0.00 0.00 1116.3
20260502190737 22 45 0.0 0.0 0.00 0.00 0.00 1116.3
20260502190231 22 45 0.0 0.0 0.00 0.00 0.00 1116.1
20260502185726 22 45 0.0 0.0 0.00 0.00 0.00 1116.2
20260502185220 22 45 0.0 0.0 0.00 0.00 0.00 1116.1
20260502184715 22 45 0.0 0.0 0.00 0.00 0.00 1116.1
20260502184210 22 45 0.0 0.0 0.00 0.00 0.00 1116.1
20260502183704 23 45 0.0 0.0 0.00 0.00 0.00 1116.1
20260502183159 23 45 0.0 0.0 0.00 0.00 0.00 1116.0
20260502182654 23 45 0.0 0.0 0.00 0.00 0.00 1116.0
20260502182148 23 45 0.0 0.0 0.00 0.00 0.00 1116.0
20260502181643 23 45 0.0 0.0 0.00 0.00 0.00 1116.0
20260502181137 23 45 0.0 0.0 0.00 0.00 0.00 1116.0
20260502180632 23 45 0.0 0.0 0.00 0.00 0.00 1116.0
20260502180126 23 45 0.0 0.0 0.00 0.00 0.00 1116.0
20260502164000 26 45 0.0 0.0 0.00 0.00 0.00 1116.1
20260502163454 26 239 0.0 0.0 0.00 0.00 0.00 1116.2
20260502162949 26 0 0.0 0.0 0.00 0.00 0.00 1116.2
20260502162443 26 35 0.0 0.0 0.00 0.00 0.00 1116.3
20260502161938 26 15 0.0 0.0 0.00 0.00 0.00 1116.3
20260502161432 26 0 0.0 0.0 0.00 0.00 0.00 1116.4
20260502160927 26 66 0.0 0.0 0.00 0.00 0.00 1116.4
20260502160422 26 71 0.0 0.0 0.00 0.00 0.00 1116.4
20260502152338 27 10 0.0 3.2 0.00 0.00 0.00 1116.8
20260502151833 27 337 0.0 3.2 0.00 0.00 0.00 1116.8
20260502151328 27 44 0.0 4.8 0.00 0.00 0.00 1116.8
20260502150822 27 93 0.0 4.8 0.00 0.00 0.00 1116.9
20260502150317 27 84 0.0 0.0 0.00 0.00 0.00 1117.0
20260502130612 26 81 0.0 3.2 0.00 0.00 0.00 1118.7
20260502130106 26 74 0.0 3.2 0.00 0.00 0.00 1118.8
20260502123538 26 58 0.0 3.2 0.00 0.00 0.00 1119.0
20260502123032 26 97 0.0 4.8 0.00 0.00 0.00 1119.1
20260502122527 26 22 0.0 4.8 0.00 0.00 0.00 1119.2
20260502122022 26 0 0.0 0.0 0.00 0.00 0.00 1119.3
20260502121516 26 62 0.0 3.2 0.00 0.00 0.00 1119.4
20260502121011 26 47 0.0 4.8 0.00 0.00 0.00 1119.5
20260502120505 26 34 0.0 3.2 0.00 0.00 0.00 1119.6
20260502115455 26 48 0.0 0.0 0.00 0.00 0.00 1119.6
20260502114949 25 78 0.0 0.0 0.00 0.00 0.00 1119.7
20260502114444 25 30 0.0 0.0 0.00 0.00 0.00 1119.7
20260502113938 25 354 0.0 0.0 0.00 0.00 0.00 1119.9
20260502113433 25 38 0.0 0.0 0.00 0.00 0.00 1119.9
20260502112928 25 73 0.0 0.0 0.00 0.00 0.00 1120.0
20260502112422 25 84 0.0 4.8 0.00 0.00 0.00 1120.1
20260502111917 25 80 0.0 4.8 0.00 0.00 0.00 1120.1
20260502111411 25 45 0.0 0.0 0.00 0.00 0.00 1120.2
20260502110906 25 89 0.0 0.0 0.00 0.00 0.00 1120.3
20260502110400 25 45 0.0 0.0 0.00 0.00 0.00 1120.2
20260502105855 25 40 0.0 0.0 0.00 0.00 0.00 1120.3
20260502105350 25 91 0.0 0.0 0.00 0.00 0.00 1120.4
20260502104844 25 60 0.0 0.0 0.00 0.00 0.00 1120.6
20260502104339 25 54 0.0 0.0 0.00 0.00 0.00 1120.6
20260502103833 25 45 0.0 0.0 0.00 0.00 0.00 1120.7
20260502103328 25 106 0.0 0.0 0.00 0.00 0.00 1120.7
20260502102823 25 33 0.0 0.0 0.00 0.00 0.00 1120.7
20260502102317 25 20 0.0 0.0 0.00 0.00 0.00 1120.8
20260502101811 24 45 0.0 3.2 0.00 0.00 0.00 1120.9
20260502101305 24 136 0.0 0.0 0.00 0.00 0.00 1120.9
20260502100800 24 0 0.0 0.0 0.00 0.00 0.00 1120.9
20260502100254 24 10 0.0 0.0 0.00 0.00 0.00 1120.9
20260502091200 23 89 0.0 0.0 0.00 0.00 0.00 1121.5
20260502090655 22 89 0.0 0.0 0.00 0.00 0.00 1121.6
20260502090150 22 89 0.0 0.0 0.00 0.00 0.00 1121.5
20260502071455 20 0 0.0 0.0 0.00 0.00 0.00 1122.3
20260502070950 20 0 0.0 0.0 0.00 0.00 0.00 1122.4
20260502070444 20 279 0.0 0.0 0.00 0.00 0.00 1122.4
20260502065939 20 315 0.0 0.0 0.00 0.00 0.00 1122.5
20260502065433 20 334 0.0 0.0 0.00 0.00 0.00 1122.5
20260502064928 20 353 0.0 0.0 0.00 0.00 0.00 1122.3
20260502064422 20 83 0.0 6.4 0.00 0.00 0.00 1122.4
20260502063917 21 351 0.0 6.4 0.00 0.00 0.00 1122.4
20260502063412 21 270 0.0 0.0 0.00 0.00 0.00 1122.5
20260502062906 21 299 0.0 0.0 0.00 0.00 0.00 1122.4
20260502062400 21 315 0.0 4.8 0.00 0.00 0.00 1122.5
20260502061855 21 316 0.0 4.8 0.00 0.00 0.00 1122.5
20260502061349 22 13 0.0 4.8 0.00 0.00 0.00 1122.6
20260502060844 22 322 1.6 4.8 0.00 0.00 0.00 1122.5
20260502060339 23 339 0.0 3.2 0.00 0.00 0.00 1122.4
20260502055833 25 315 0.0 3.2 0.00 0.00 0.00 1122.4
20260502055328 26 350 0.0 3.2 0.00 0.00 0.00 1122.5
20260502054822 26 325 0.0 8.0 0.00 0.00 0.00 1122.4
20260502053812 27 135 0.0 6.4 0.00 0.00 0.00 1122.4
20260502053306 26 135 0.0 0.0 0.00 0.00 0.00 1122.3
20260502052801 26 135 0.0 0.0 0.00 0.00 0.00 1122.3
20260502052255 25 135 0.0 0.0 0.00 0.00 0.00 1122.4
20260502051750 25 135 0.0 0.0 0.00 0.00 0.00 1122.4
20260502051245 23 135 0.0 0.0 0.00 0.00 0.00 1122.5
20260502050739 23 135 0.0 0.0 0.00 0.00 0.00 1122.5
20260502050234 22 135 0.0 3.2 0.00 0.00 0.00 1122.4
20260502045728 21 135 0.0 3.2 0.00 0.00 0.00 1122.4
20260502045223 19 135 0.0 0.0 0.00 0.00 0.00 1122.5
20260502044717 17 135 0.0 0.0 0.00 0.00 0.00 1122.4
20260502044212 16 135 0.0 0.0 0.00 0.00 0.00 1122.4
20260502043707 15 135 0.0 0.0 0.00 0.00 0.00 1122.5
20260502043201 15 135 0.0 0.0 0.00 0.00 0.00 1122.5
20260502042656 14 135 0.0 0.0 0.00 0.00 0.00 1122.5
20260502042151 13 135 0.0 0.0 0.00 0.00 0.00 1122.5
20260502041645 13 135 0.0 0.0 0.00 0.00 0.00 1122.5
20260502041140 13 135 0.0 0.0 0.00 0.00 0.00 1122.6
20260502040634 13 135 0.0 0.0 0.00 0.00 0.00 1122.4
20260502040129 13 135 0.0 0.0 0.00 0.00 0.00 1122.6
20260502035623 13 135 0.0 4.8 0.00 0.00 0.00 1122.4
20260502035401 13 135 0.0 3.2 0.00 0.00 0.00 1122.3
20260502035150 13 135 0.0 3.2 0.00 0.00 0.00 1122.5
20260502035118 13 135 0.0 3.2 0.00 0.00 0.00 1122.5
20260502034612 13 135 0.0 3.2 0.00 0.00 0.00 1122.3
20260502034106 13 135 1.6 4.8 0.00 0.00 0.00 1122.2
20260502033601 13 135 1.6 4.8 0.00 0.00 0.00 1122.2
20260502033055 13 135 0.0 4.8 0.00 0.00 0.00 1122.2
20260502032550 14 135 1.6 4.8 0.00 0.00 0.00 1122.3
20260502032044 14 135 0.0 4.8 0.00 0.00 0.00 1122.3
20260502031539 14 135 0.0 4.8 0.00 0.00 0.00 1122.4
20260502031033 14 135 1.6 8.0 0.00 0.00 0.00 1122.4
20260502030528 14 135 1.6 8.0 0.00 0.00 0.00 1122.5
20260502030023 14 135 3.2 6.4 0.00 0.00 0.00 1122.6
20260502025517 15 135 1.6 4.8 0.00 0.00 0.00 1122.6
20260502025012 15 135 1.6 6.4 0.00 0.00 0.00 1122.5
20260502024507 15 135 1.6 4.8 0.00 0.00 0.00 1122.6
20260502024001 15 135 0.0 4.8 0.00 0.00 0.00 1122.5
20260502023456 15 135 0.0 4.8 0.00 0.00 0.00 1122.5
20260502022950 15 135 0.0 3.2 0.00 0.00 0.00 1122.5
20260502022445 15 135 0.0 3.2 0.00 0.00 0.00 1122.5